{"data":{"norad_id":48999,"intl_designator":"2021-060AJ","name":"ONEWEB-0281","alt_names":[],"object_type":"PAYLOAD","status":"ACTIVE","operator":null,"country":"UK","launch_date":"2021-07-01","launch_site_code":"VOSTO","launch_vehicle":null,"mission":null,"orbit_class":"UNKNOWN","rcs_meters":null,"size_class":null,"mass_kg":null,"dimensions":null,"purposes":["comms"],"wikipedia_slug":null,"has_3d_model":false,"image_url":null,"decayed_at":null,"tle_current":{"epoch":"2026-09-20T03:19:30.581760Z","epoch_age_seconds":53281,"freshness":"FRESH","line1":"1 48999U 21060AJ  26263.13854840 -.00000001  00000+0 -35870-4 0  9999","line2":"2 48999  87.9156 209.9227 0002100  79.0576 281.0791 13.16593058252126","mean_motion":13.16593058,"eccentricity":0.00021,"inclination_deg":87.9156,"raan_deg":209.9227,"arg_perigee_deg":79.0576,"mean_anomaly_deg":281.0791,"bstar":-3.587e-5,"rev_number":25212,"period_min":109.37320315113,"perigee_km":1196.1703279531,"apogee_km":1199.352205225,"semimajor_km":7575.898266589,"source":"CELESTRAK","updated_at":"2026-09-20T09:00:44.629694Z"}}}